[[{"header":{"parameterUnit":"m.s-1","parameterCategory":1,"la1":30.2991,"la2":30.254,"lo1":-89.0895,"lo2":-89.0444,"dy":0.0017,"dx":0.0017,"nx":28,"ny":28,"refTime":"2025-11-22T09:00:00:Z","depth":0,"parameterNumber":2,"parameterNumberName":"U-component_of_WINDS"},"data":[0,0,0,0,0,0,0,0,0,0,0,0,0,0,0,0,0,0,0,0,0,0,0,0,0,0,0,0,0,0,0,0,0,0,0,0,0,0,0,0,0,0,0,0,0,0,0,0,0,0,0,0,0,0,0,0,0,0,-0.421,-0.4209,0,-0.4105,-0.4103,-0.4102,-0.4019,-0.4018,-0.4018,-0.4017,-0.391,-0.3908,-0.3906,0,0,0,0,0,0,0,0,0,0,0,0,0,-0.4341,-0.4339,-0.4211,-0.4209,-0.4208,-0.4105,-0.4103,-0.4102,-0.4019,-0.4018,-0.4017,-0.4016,-0.3911,-0.3908,-0.3906,0,0,0,0,0,0,0,0,0,0,0,0,0,-0.4265,-0.4338,-0.4211,-0.4154,-0.4148,-0.4105,-0.4103,-0.4101,-0.402,-0.4018,-0.4017,-0.4016,-0.3911,-0.3908,-0.3905,-0.391,0,0,-0.3896,-0.3894,0,0,0,0,0,0,0,0,-0.4269,-0.426,-0.4164,-0.4158,-0.4151,-0.4074,-0.411,-0.4037,-0.402,-0.4068,-0.4017,-0.4015,-0.3966,-0.3958,-0.3941,-0.3905,-0.3901,-0.3895,-0.3894,-0.3892,-0.3891,0,0,0,0,0,0,0,-0.4274,-0.4264,-0.4169,-0.4163,-0.4155,-0.4134,-0.4122,-0.4096,-0.4025,-0.4064,-0.4058,-0.4046,-0.3962,-0.3944,-0.3938,-0.3899,-0.3895,-0.3893,-0.3891,-0.389,-0.3861,-0.3862,0,0,0,0,0,0,-0.4288,-0.4269,-0.4172,-0.4165,-0.4208,-0.4133,-0.4119,-0.41,-0.4025,-0.4013,-0.4047,-0.4043,-0.395,-0.3941,-0.3934,-0.3934,-0.3892,-0.3889,-0.3887,-0.3859,-0.3861,-0.3862,0,0,0,0,0,0,-0.4291,-0.428,-0.4176,-0.4215,-0.42,-0.4132,-0.4111,-0.4098,-0.408,-0.4013,-0.4,-0.4042,-0.3949,-0.3938,-0.3916,-0.3929,-0.3888,-0.3885,-0.3858,-0.386,-0.3861,-0.3935,0,0,0,0,0,0,-0.4296,-0.4282,-0.4284,-0.4216,-0.4199,-0.4161,-0.4112,-0.4097,-0.4075,-0.4068,-0.4004,-0.3993,-0.3947,-0.3921,-0.3913,-0.3924,-0.3883,-0.3857,-0.3859,-0.3861,-0.3931,-0.3939,-0.3946,0,0,0,0,0,-0.43,-0.4309,-0.4284,-0.4273,-0.4199,-0.4162,-0.4152,-0.4099,-0.4077,-0.4077,-0.4033,-0.3995,-0.3928,-0.392,-0.391,-0.392,-0.3856,-0.3858,-0.3861,-0.3928,-0.3938,-0.3946,0,0,0,0,0,0,-0.4382,-0.43,-0.4271,-0.4258,-0.4218,-0.4148,-0.4148,-0.4111,-0.4077,-0.4072,-0.4007,-0.3993,-0.3978,-0.3946,-0.3938,-0.392,-0.3887,-0.3888,-0.3942,-0.395,-0.3957,-0.3966,-0.388,0,0,0,0,0,-0.4398,-0.4374,-0.4304,-0.4299,-0.428,-0.4218,-0.42,-0.4162,-0.4117,-0.41,-0.4055,-0.4013,-0.3983,-0.3964,-0.3933,-0.3925,-0.391,-0.3927,-0.3935,-0.3941,-0.3943,-0.3935,-0.3942,-0.387,-0.387,-0.387,0,0,-0.4432,-0.4384,-0.4373,-0.4314,-0.4279,-0.4256,-0.4204,-0.4182,-0.4165,-0.4097,-0.4074,-0.4038,-0.3988,-0.3973,-0.3964,-0.3946,-0.3959,-0.3944,-0.395,-0.3948,-0.3939,-0.3945,-0.3952,-0.3872,-0.3872,-0.3871,0,0,-0.4481,-0.4443,-0.4435,-0.4399,-0.4345,-0.4303,-0.4301,-0.4236,-0.421,-0.4185,-0.4133,-0.4111,-0.406,-0.4026,-0.4002,-0.4036,-0.3999,-0.4027,-0.4066,-0.4059,-0.4065,-0.407,-0.4082,-0.4087,-0.4029,-0.4029,-0.4029,0,-0.4531,-0.4494,-0.4435,-0.4416,-0.4391,-0.4327,-0.4318,-0.4286,-0.4225,-0.4209,-0.4189,-0.4123,-0.4085,-0.4061,-0.4069,-0.4051,-0.4047,-0.4035,-0.4069,-0.4073,-0.4076,-0.4087,-0.4092,-0.4033,-0.4032,-0.4032,-0.4032,0,-0.4557,-0.4532,-0.4531,-0.4473,-0.4448,-0.4434,-0.4372,-0.4354,-0.4317,-0.4277,-0.4252,-0.4203,-0.416,-0.415,-0.4115,-0.4121,-0.4111,-0.4081,-0.4047,-0.4088,-0.4097,-0.4101,-0.4038,-0.4037,-0.4036,-0.4035,0,0,-0.4658,-0.4564,-0.4566,-0.4537,-0.4471,-0.4451,-0.4433,-0.439,-0.4375,-0.4334,-0.4318,-0.4275,-0.4246,-0.4218,-0.4178,-0.4172,-0.4202,-0.4142,-0.414,-0.4156,-0.4204,-0.4228,-0.4234,-0.4176,-0.4176,-0.4177,-0.4209,0,-0.4698,-0.4663,-0.4608,-0.459,-0.4566,-0.4504,-0.4488,-0.4445,-0.4407,-0.438,-0.4337,-0.4308,-0.4271,-0.4254,-0.4245,-0.42,-0.4211,-0.4197,-0.416,-0.416,-0.4176,-0.4239,-0.4264,-0.4297,-0.4212,-0.4212,-0.4213,0,-0.4741,-0.4702,-0.4683,-0.4617,-0.4604,-0.4591,-0.4546,-0.4522,-0.4472,-0.4443,-0.4412,-0.4367,-0.4344,-0.4312,-0.428,-0.4272,-0.4253,-0.4228,-0.4228,-0.4224,-0.419,-0.4237,-0.4306,-0.4311,-0.4218,-0.4217,-0.4217,0,-0.4817,-0.476,-0.474,-0.4718,-0.4641,-0.4633,-0.46,-0.4549,-0.4526,-0.4486,-0.447,-0.4428,-0.4406,-0.4375,-0.432,-0.4302,-0.4293,-0.4257,-0.4269,-0.4271,-0.4272,-0.4273,-0.434,-0.4258,-0.4258,-0.4258,-0.4258,0,-0.4869,-0.4859,-0.4773,-0.4762,-0.4748,-0.4684,-0.4673,-0.4634,-0.4589,-0.4568,-0.451,-0.4492,-0.442,-0.4393,-0.435,-0.4329,-0.4319,-0.4296,-0.4285,-0.4302,-0.4305,-0.429,-0.4287,-0.426,-0.4259,-0.4259,-0.4259,0,-0.4953,-0.4895,-0.4869,-0.4797,-0.4778,-0.4772,-0.471,-0.4696,-0.4652,-0.4626,-0.4616,-0.4548,-0.4513,-0.4455,-0.4403,-0.4374,-0.4361,-0.4342,-0.4379,-0.4372,-0.4388,-0.4388,-0.4449,-0.4453,-0.4369,-0.4369,-0.437,0,-0.499,-0.4981,-0.4907,-0.4889,-0.4858,-0.4829,-0.4804,-0.474,-0.4717,-0.4658,-0.4651,-0.461,-0.4575,-0.4522,-0.4468,-0.4428,-0.4407,-0.4431,-0.4401,-0.4418,-0.4408,-0.441,-0.4408,-0.4439,-0.444,-0.4441,-0.4442,0,-0.5063,-0.5034,-0.5001,-0.4957,-0.4929,-0.4892,-0.4851,-0.4839,-0.4766,-0.4742,-0.4705,-0.4678,-0.4623,-0.4585,-0.4536,-0.4502,-0.446,-0.4452,-0.4452,-0.4471,-0.4492,-0.4481,-0.4399,-0.4451,-0.445,-0.445,-0.4449,-0.4449,-0.5125,-0.5114,-0.5059,-0.5024,-0.4986,-0.4949,-0.4932,-0.4885,-0.4853,-0.4803,-0.4767,-0.4732,-0.468,-0.461,-0.4578,-0.4549,-0.453,-0.4532,-0.4532,-0.4534,-0.454,-0.4496,-0.454,-0.454,-0.4539,-0.4539,-0.4539,0,-0.5196,-0.5157,-0.5124,-0.5069,-0.504,-0.5001,-0.4954,-0.4933,-0.4903,-0.4857,-0.4823,-0.478,-0.4741,-0.4682,-0.4639,-0.4627,-0.4607,-0.4618,-0.4619,-0.4612,-0.456,-0.4563,-0.4635,-0.4635,-0.4635,-0.4635,-0.4635,-0.4635,-0.5229,-0.5207,-0.5171,-0.513,-0.509,-0.5055,-0.5032,-0.4997,-0.496,-0.4914,-0.4881,-0.4842,-0.4791,-0.4743,-0.4705,-0.4689,-0.4676,-0.4693,-0.4671,-0.4624,-0.4615,-0.4607,-0.461,-0.4691,-0.4691,-0.4725,-0.4726,-0.4726]},{"header":{"parameterUnit":"m.s-1","parameterCategory":1,"la1":30.2991,"la2":30.254,"lo1":-89.0895,"lo2":-89.0444,"dy":0.0017,"dx":0.0017,"nx":28,"ny":28,"refTime":"2025-11-22T09:00:00:Z","depth":0,"parameterNumber":3,"parameterNumberName":"V-component_of_WINDS"},"data":[0,0,0,0,0,0,0,0,0,0,0,0,0,0,0,0,0,0,0,0,0,0,0,0,0,0,0,0,0,0,0,0,0,0,0,0,0,0,0,0,0,0,0,0,0,0,0,0,0,0,0,0,0,0,0,0,0,0,-3.5688,-3.5687,0,-3.5649,-3.5648,-3.5648,-3.558,-3.5579,-3.5577,-3.5576,-3.5538,-3.5538,-3.5538,0,0,0,0,0,0,0,0,0,0,0,0,0,-3.5705,-3.5705,-3.5688,-3.5687,-3.5687,-3.5649,-3.5648,-3.5648,-3.558,-3.5579,-3.5577,-3.5576,-3.5538,-3.5538,-3.5538,0,0,0,0,0,0,0,0,0,0,0,0,0,-3.5685,-3.5705,-3.5688,-3.5648,-3.5645,-3.5649,-3.5648,-3.5647,-3.558,-3.5579,-3.5577,-3.5575,-3.5538,-3.5538,-3.5538,-3.5578,0,0,-3.5539,-3.5539,0,0,0,0,0,0,0,0,-3.5686,-3.5685,-3.5655,-3.5651,-3.5647,-3.5617,-3.564,-3.5624,-3.5581,-3.5605,-3.5576,-3.5574,-3.5566,-3.5564,-3.5561,-3.5577,-3.5575,-3.5539,-3.5539,-3.554,-3.554,0,0,0,0,0,0,0,-3.5688,-3.5686,-3.5672,-3.5654,-3.565,-3.5633,-3.5628,-3.5637,-3.5597,-3.5603,-3.5598,-3.5594,-3.5564,-3.5561,-3.5559,-3.5574,-3.5539,-3.554,-3.554,-3.554,-3.562,-3.5622,0,0,0,0,0,0,-3.5695,-3.5688,-3.5673,-3.5671,-3.5662,-3.5634,-3.5629,-3.5629,-3.5596,-3.559,-3.5596,-3.5591,-3.5561,-3.5559,-3.5558,-3.5601,-3.554,-3.554,-3.554,-3.5618,-3.562,-3.5622,0,0,0,0,0,0,-3.5696,-3.5694,-3.5675,-3.5678,-3.5674,-3.5636,-3.5636,-3.5629,-3.5626,-3.5591,-3.5584,-3.56,-3.556,-3.5557,-3.5573,-3.5599,-3.554,-3.554,-3.5616,-3.5619,-3.5621,-3.5689,0,0,0,0,0,0,-3.5696,-3.5695,-3.5709,-3.5679,-3.5674,-3.5691,-3.5638,-3.5629,-3.5626,-3.562,-3.5593,-3.5587,-3.5558,-3.5573,-3.5574,-3.5598,-3.554,-3.5613,-3.5617,-3.562,-3.5685,-3.5694,-3.5702,0,0,0,0,0,-3.5697,-3.5731,-3.571,-3.5709,-3.5692,-3.5693,-3.569,-3.5655,-3.5629,-3.5643,-3.562,-3.5588,-3.5597,-3.5576,-3.5575,-3.56,-3.5611,-3.5616,-3.562,-3.5681,-3.5692,-3.5702,0,0,0,0,0,0,-3.5766,-3.5726,-3.5703,-3.5728,-3.5714,-3.5681,-3.5698,-3.5669,-3.5663,-3.5658,-3.5616,-3.561,-3.5631,-3.5618,-3.5595,-3.5637,-3.5599,-3.5603,-3.5645,-3.5656,-3.5664,-3.5667,-3.5541,0,0,0,0,0,-3.5784,-3.5788,-3.5753,-3.5778,-3.5772,-3.5737,-3.5736,-3.571,-3.5695,-3.5689,-3.5667,-3.5654,-3.5653,-3.5654,-3.5652,-3.5683,-3.5675,-3.57,-3.5709,-3.5716,-3.5721,-3.5735,-3.5745,-3.5637,-3.5637,-3.5637,0,0,-3.5822,-3.58,-3.5805,-3.5791,-3.5778,-3.5783,-3.5732,-3.574,-3.5743,-3.569,-3.5703,-3.5687,-3.567,-3.5693,-3.5702,-3.5682,-3.5749,-3.5722,-3.5728,-3.5728,-3.574,-3.575,-3.576,-3.564,-3.5639,-3.5639,0,0,-3.5892,-3.5876,-3.5895,-3.5882,-3.5862,-3.5838,-3.5842,-3.5814,-3.5801,-3.5813,-3.5773,-3.5777,-3.5777,-3.5766,-3.576,-3.5826,-3.5795,-3.5827,-3.5873,-3.5887,-3.5895,-3.5903,-3.5925,-3.5934,-3.5831,-3.5831,-3.5831,0,-3.5941,-3.5946,-3.5908,-3.5918,-3.5913,-3.5864,-3.5883,-3.5872,-3.5853,-3.5851,-3.5829,-3.5827,-3.5812,-3.5831,-3.5847,-3.5845,-3.5848,-3.5829,-3.5897,-3.5904,-3.591,-3.5931,-3.594,-3.5835,-3.5835,-3.5834,-3.5834,0,-3.6006,-3.6011,-3.6028,-3.601,-3.6007,-3.6021,-3.5985,-3.5987,-3.5962,-3.5941,-3.5954,-3.5934,-3.5926,-3.5929,-3.5905,-3.5945,-3.5933,-3.5905,-3.5865,-3.5925,-3.5944,-3.5951,-3.584,-3.5839,-3.5838,-3.5837,0,0,-3.6118,-3.6078,-3.6085,-3.6075,-3.605,-3.6052,-3.6065,-3.6056,-3.6058,-3.6046,-3.6055,-3.6056,-3.603,-3.6023,-3.5998,-3.6011,-3.6062,-3.5981,-3.5979,-3.5995,-3.6103,-3.6124,-3.6133,-3.6042,-3.6044,-3.6045,-3.6104,0,-3.6182,-3.6199,-3.6165,-3.6191,-3.6194,-3.6148,-3.6159,-3.6144,-3.6124,-3.6124,-3.6103,-3.6104,-3.607,-3.6065,-3.6076,-3.6054,-3.6083,-3.6049,-3.6049,-3.605,-3.6054,-3.6143,-3.6165,-3.6222,-3.6112,-3.6113,-3.6114,0,-3.6258,-3.6249,-3.6275,-3.6246,-3.6246,-3.6256,-3.6245,-3.6246,-3.6229,-3.6214,-3.6206,-3.6176,-3.6186,-3.6149,-3.6161,-3.6139,-3.6137,-3.6126,-3.6128,-3.6125,-3.6084,-3.6142,-3.6239,-3.6248,-3.6125,-3.6124,-3.6123,0,-3.6336,-3.633,-3.6344,-3.6338,-3.6305,-3.6313,-3.63,-3.6281,-3.6278,-3.6269,-3.6266,-3.6259,-3.6255,-3.625,-3.6218,-3.6194,-3.6234,-3.6195,-3.6221,-3.6222,-3.6231,-3.623,-3.6328,-3.6232,-3.6232,-3.6232,-3.6232,0,-3.6409,-3.6426,-3.6378,-3.6387,-3.6405,-3.6366,-3.6385,-3.6367,-3.635,-3.6355,-3.6316,-3.6321,-3.6279,-3.628,-3.6256,-3.6269,-3.6268,-3.6256,-3.6249,-3.6258,-3.626,-3.6256,-3.625,-3.6234,-3.6234,-3.6233,-3.6233,0,-3.6498,-3.6467,-3.6479,-3.6447,-3.6439,-3.6454,-3.6427,-3.6433,-3.6411,-3.6417,-3.6417,-3.6382,-3.6381,-3.6349,-3.6341,-3.6325,-3.6348,-3.6334,-3.6353,-3.6348,-3.6376,-3.6374,-3.6473,-3.6484,-3.6383,-3.6384,-3.6385,0,-3.6547,-3.6558,-3.6528,-3.6527,-3.6516,-3.6517,-3.6513,-3.6476,-3.6473,-3.6454,-3.6463,-3.6458,-3.6452,-3.6452,-3.6427,-3.642,-3.6406,-3.6441,-3.6404,-3.6413,-3.6404,-3.6403,-3.6404,-3.6448,-3.645,-3.6451,-3.6452,0,-3.6636,-3.6619,-3.6615,-3.6605,-3.6602,-3.6593,-3.6581,-3.6584,-3.6543,-3.6542,-3.654,-3.6535,-3.6527,-3.6522,-3.6511,-3.6498,-3.6468,-3.6464,-3.6469,-3.6478,-3.6488,-3.6482,-3.6373,-3.6461,-3.646,-3.646,-3.6459,-3.6459,-3.6705,-3.6713,-3.6692,-3.6688,-3.6676,-3.6665,-3.667,-3.6648,-3.6645,-3.6634,-3.6613,-3.6614,-3.6595,-3.6577,-3.6567,-3.6567,-3.6549,-3.6557,-3.6559,-3.6561,-3.6566,-3.6489,-3.6565,-3.6565,-3.6564,-3.6564,-3.6564,0,-3.679,-3.6775,-3.6772,-3.6756,-3.6754,-3.6725,-3.6711,-3.671,-3.6711,-3.6697,-3.6691,-3.6688,-3.6684,-3.6658,-3.665,-3.6655,-3.6641,-3.6654,-3.6653,-3.665,-3.6583,-3.6579,-3.6666,-3.6666,-3.6666,-3.6665,-3.6665,-3.6665,-3.6835,-3.6846,-3.6827,-3.6832,-3.6816,-3.6816,-3.681,-3.6801,-3.6788,-3.6786,-3.6782,-3.6765,-3.6745,-3.6736,-3.673,-3.6723,-3.6721,-3.6739,-3.6727,-3.6665,-3.6655,-3.6645,-3.6641,-3.6739,-3.6739,-3.6793,-3.6793,-3.6794]}]]